FW9482 Weather Reports


Display with metric or nautical units.
time (UTC)temp
F
wind
direction
speed
MPH
gust
MPH
rain 1hr
in
rain 24hr
in
rain mn
in
humidity
%
barometer
mb
20210924010012 74 201 0.0 0.0 0.00 0.00 0.00 48 1018.6
20210924005511 74 201 0.0 0.0 0.00 0.00 0.00 47 1018.6
20210924005010 74 201 0.0 0.0 0.00 0.00 0.00 46 1018.6
20210924004510 74 201 0.0 0.0 0.00 0.00 0.00 47 1018.6
20210924004008 75 201 0.0 0.0 0.00 0.00 0.00 44 1018.6
20210924003505 76 201 0.0 0.0 0.00 0.00 0.00 44 1018.6
20210924003003 76 201 0.0 0.0 0.00 0.00 0.00 43 1018.6
20210924002501 76 201 0.0 0.0 0.00 0.00 0.00 43 1018.6
20210924001959 77 201 0.0 0.0 0.00 0.00 0.00 43 1018.6
20210924001457 77 200 0.0 0.0 0.00 0.00 0.00 42 1018.6
20210924000954 78 200 0.0 0.0 0.00 0.00 0.00 41 1018.6
20210924000452 78 200 0.0 0.0 0.00 0.00 0.00 39 1018.2
20210923235947 79 200 0.0 0.0 0.00 0.00 0.00 39 1018.6
20210923235446 80 200 0.0 0.0 0.00 0.00 0.00 37 1018.2
20210923234945 80 200 0.0 0.0 0.00 0.00 0.00 37 1018.6
20210923234441 82 200 0.0 0.0 0.00 0.00 0.00 36 1018.6
20210923233939 82 200 0.0 0.0 0.00 0.00 0.00 35 1018.6
20210923233439 81 200 0.0 0.0 0.00 0.00 0.00 34 1018.6
20210923232938 80 200 0.0 0.0 0.00 0.00 0.00 35 1018.6
20210923232438 81 218 0.0 0.0 0.00 0.00 0.00 35 1018.6
20210923231936 82 218 0.0 0.0 0.00 0.00 0.00 35 1018.2
20210923231434 82 217 0.0 0.0 0.00 0.00 0.00 34 1018.2
20210923230933 82 217 1.0 1.0 0.00 0.00 0.00 32 1018.6
20210923230430 83 217 2.0 2.0 0.00 0.00 0.00 32 1018.6
20210923225926 85 217 0.0 0.0 0.00 0.00 0.00 32 1018.6
20210923225425 84 217 0.0 0.0 0.00 0.00 0.00 29 1018.6
20210923224924 83 215 0.0 0.0 0.00 0.00 0.00 29 1018.6
20210923224423 83 192 0.0 0.0 0.00 0.00 0.00 29 1018.6
20210923223920 83 192 0.0 0.0 0.00 0.00 0.00 29 1018.6
20210923223418 83 192 0.0 0.0 0.00 0.00 0.00 30 1018.6
20210923222917 83 186 0.0 0.0 0.00 0.00 0.00 30 1018.6
20210923222411 83 186 1.0 1.0 0.00 0.00 0.00 28 1018.6
20210923221901 84 186 0.0 0.0 0.00 0.00 0.00 28 1018.6
20210923221359 85 181 0.0 0.0 0.00 0.00 0.00 27 1018.6
20210923220858 84 181 1.0 1.0 0.00 0.00 0.00 26 1018.6
20210923220357 86 180 0.0 0.0 0.00 0.00 0.00 26 1018.6
20210923215856 85 180 2.0 2.0 0.00 0.00 0.00 26 1018.6
20210923215353 84 210 2.0 2.0 0.00 0.00 0.00 26 1018.6
20210923214851 84 222 2.0 2.0 0.00 0.00 0.00 25 1018.6
20210923214351 85 222 0.0 0.0 0.00 0.00 0.00 25 1018.9
20210923213847 84 132 2.0 2.0 0.00 0.00 0.00 26 1018.6
20210923213347 86 74 0.0 0.0 0.00 0.00 0.00 24 1018.6
20210923212847 86 12 0.0 0.0 0.00 0.00 0.00 25 1018.6
20210923212345 87 66 0.0 0.0 0.00 0.00 0.00 25 1018.6
20210923211841 87 222 0.0 0.0 0.00 0.00 0.00 26 1018.9
20210923211341 86 222 0.0 0.0 0.00 0.00 0.00 26 1018.6
20210923210840 86 133 2.0 2.0 0.00 0.00 0.00 28 1018.6
20210923210339 86 166 2.0 2.0 0.00 0.00 0.00 25 1018.6
20210923205838 86 88 1.0 1.0 0.00 0.00 0.00 25 1018.9
20210923205337 86 223 0.0 0.0 0.00 0.00 0.00 28 1018.9
20210923204835 85 276 0.0 0.0 0.00 0.00 0.00 26 1018.9
20210923204334 87 276 2.0 2.0 0.00 0.00 0.00 24 1018.9
20210923203833 88 293 0.0 0.0 0.00 0.00 0.00 26 1018.9
20210923203332 88 348 0.0 0.0 0.00 0.00 0.00 26 1018.9
20210923202829 87 348 0.0 0.0 0.00 0.00 0.00 25 1018.9
20210923202328 85 101 2.0 2.0 0.00 0.00 0.00 24 1018.9
20210923201827 85 106 2.0 2.0 0.00 0.00 0.00 24 1019.6
20210923201326 85 222 2.0 2.0 0.00 0.00 0.00 25 1019.3
20210923200826 85 288 2.0 2.0 0.00 0.00 0.00 24 1019.6
20210923200325 85 286 2.0 2.0 0.00 0.00 0.00 26 1019.6
20210923195823 87 336 0.0 0.0 0.00 0.00 0.00 25 1019.3
20210923195322 87 336 2.0 2.0 0.00 0.00 0.00 23 1019.6
20210923194821 85 336 0.0 0.0 0.00 0.00 0.00 26 1019.6
20210923194319 85 285 2.0 2.0 0.00 0.00 0.00 25 1019.9
20210923193818 85 54 1.0 1.0 0.00 0.00 0.00 24 1019.6
20210923193317 84 54 2.0 2.0 0.00 0.00 0.00 26 1019.9
20210923192815 85 107 0.0 0.0 0.00 0.00 0.00 24 1019.9
20210923192314 85 90 0.0 0.0 0.00 0.00 0.00 28 1019.9
20210923191812 84 151 2.0 2.0 0.00 0.00 0.00 26 1020.3
20210923191311 85 204 0.0 0.0 0.00 0.00 0.00 30 1020.3
20210923190810 85 198 0.0 0.0 0.00 0.00 0.00 28 1020.3
20210923190309 85 336 0.0 0.0 0.00 0.00 0.00 30 1020.3
20210923185807 84 36 0.0 0.0 0.00 0.00 0.00 29 1020.6
20210923185306 86 84 0.0 0.0 0.00 0.00 0.00 30 1020.6
20210923184804 85 198 2.0 2.0 0.00 0.00 0.00 31 1020.6
20210923184302 85 198 2.0 2.0 0.00 0.00 0.00 30 1020.6
20210923183801 84 30 1.0 1.0 0.00 0.00 0.00 28 1021.0
20210923183300 84 6 2.0 2.0 0.00 0.00 0.00 30 1020.6
20210923182758 85 312 2.0 2.0 0.00 0.00 0.00 28 1021.0
20210923182257 85 108 0.0 0.0 0.00 0.00 0.00 29 1021.0
20210923181756 84 154 0.0 0.0 0.00 0.00 0.00 31 1021.0
20210923181255 85 280 2.0 2.0 0.00 0.00 0.00 28 1021.0
20210923180753 84 287 3.0 3.0 0.00 0.00 0.00 30 1021.3
20210923180251 85 198 0.0 0.0 0.00 0.00 0.00 31 1021.3
20210923175748 84 60 0.0 0.0 0.00 0.00 0.00 32 1021.3
20210923175249 85 60 0.0 0.0 0.00 0.00 0.00 34 1021.3
20210923174748 83 64 1.0 1.0 0.00 0.00 0.00 30 1021.3
20210923174246 82 62 0.0 0.0 0.00 0.00 0.00 32 1021.6
20210923173744 83 282 0.0 0.0 0.00 0.00 0.00 28 1021.6
20210923173243 83 300 2.0 2.0 0.00 0.00 0.00 30 1021.6
20210923172742 84 60 0.0 0.0 0.00 0.00 0.00 31 1021.3
20210923172239 82 60 0.0 0.0 0.00 0.00 0.00 34 1021.6
20210923171739 83 282 3.0 3.0 0.00 0.00 0.00 30 1021.6
20210923171239 84 67 2.0 2.0 0.00 0.00 0.00 30 1021.6
20210923170737 85 42 1.0 1.0 0.00 0.00 0.00 29 1022.0
20210923170235 84 42 1.0 1.0 0.00 0.00 0.00 32 1022.0
20210923165731 84 234 0.0 0.0 0.00 0.00 0.00 33 1021.6
20210923165230 83 113 0.0 0.0 0.00 0.00 0.00 31 1022.0
20210923164727 82 313 0.0 0.0 0.00 0.00 0.00 33 1022.0
20210923164224 85 342 3.0 3.0 0.00 0.00 0.00 30 1022.0
20210923163723 85 42 0.0 0.0 0.00 0.00 0.00 31 1022.0
20210923163221 84 42 0.0 0.0 0.00 0.00 0.00 30 1022.3
20210923162720 83 36 1.0 1.0 0.00 0.00 0.00 33 1022.0
20210923162217 83 279 0.0 0.0 0.00 0.00 0.00 34 1022.0
20210923161716 83 164 0.0 0.0 0.00 0.00 0.00 33 1022.3
20210923161215 83 65 0.0 0.0 0.00 0.00 0.00 33 1022.3
20210923160711 83 65 0.0 0.0 0.00 0.00 0.00 34 1022.3
20210923160211 82 65 0.0 0.0 0.00 0.00 0.00 38 1022.3
20210923155709 81 91 1.0 1.0 0.00 0.00 0.00 36 1022.3
20210923155208 80 24 0.0 0.0 0.00 0.00 0.00 43 1022.3
20210923154707 79 276 2.0 2.0 0.00 0.00 0.00 41 1022.3
20210923154202 78 51 0.0 0.0 0.00 0.00 0.00 44 1022.0
20210923153700 78 51 0.0 0.0 0.00 0.00 0.00 44 1022.0
20210923153158 77 51 0.0 0.0 0.00 0.00 0.00 46 1022.7
20210923152656 76 49 0.0 0.0 0.00 0.00 0.00 49 1022.3
20210923152155 76 49 0.0 0.0 0.00 0.00 0.00 49 1022.3
20210923151653 76 49 0.0 0.0 0.00 0.00 0.00 50 1022.3
20210923151152 76 49 1.0 1.0 0.00 0.00 0.00 51 1022.7
20210923150651 75 48 0.0 0.0 0.00 0.00 0.00 51 1022.3
20210923150150 75 49 0.0 0.0 0.00 0.00 0.00 52 1022.0
20210923145649 74 48 0.0 0.0 0.00 0.00 0.00 53 1022.0
20210923145148 73 48 0.0 0.0 0.00 0.00 0.00 54 1022.0
20210923144647 72 48 0.0 0.0 0.00 0.00 0.00 55 1022.0
20210923144147 71 48 0.0 0.0 0.00 0.00 0.00 57 1022.0
20210923143644 70 48 0.0 0.0 0.00 0.00 0.00 60 1022.3
20210923143143 69 48 0.0 0.0 0.00 0.00 0.00 60 1022.0
20210923142641 68 48 0.0 0.0 0.00 0.00 0.00 61 1022.0
20210923142139 68 48 0.0 0.0 0.00 0.00 0.00 64 1022.3
20210923141637 67 48 0.0 0.0 0.00 0.00 0.00 66 1022.0
20210923141135 66 46 0.0 0.0 0.00 0.00 0.00 66 1022.0
20210923140634 65 46 0.0 0.0 0.00 0.00 0.00 67 1022.0
20210923140134 65 46 0.0 0.0 0.00 0.00 0.00 69 1022.0
20210923135634 64 46 0.0 0.0 0.00 0.00 0.00 70 1022.0
20210923135132 64 46 0.0 0.0 0.00 0.00 0.00 72 1022.0
20210923134631 63 46 0.0 0.0 0.00 0.00 0.00 74 1022.0
20210923134130 63 46 0.0 0.0 0.00 0.00 0.00 74 1022.0
20210923133627 62 46 0.0 0.0 0.00 0.00 0.00 74 1022.0
20210923133127 62 46 0.0 0.0 0.00 0.00 0.00 76 1022.0
20210923132625 61 46 0.0 0.0 0.00 0.00 0.00 76 1022.0
20210923132123 60 46 0.0 0.0 0.00 0.00 0.00 78 1022.0
20210923131621 60 46 0.0 0.0 0.00 0.00 0.00 79 1022.0
20210923131120 60 46 0.0 0.0 0.00 0.00 0.00 79 1022.0
20210923130620 59 46 0.0 0.0 0.00 0.00 0.00 80 1022.0
20210923130118 59 46 0.0 0.0 0.00 0.00 0.00 82 1022.0
20210923125617 58 46 0.0 0.0 0.00 0.00 0.00 82 1022.0
20210923125118 58 46 0.0 0.0 0.00 0.00 0.00 83 1022.0
20210923124616 58 46 0.0 0.0 0.00 0.00 0.00 83 1022.0
20210923124114 58 46 0.0 0.0 0.00 0.00 0.00 83 1021.6
20210923123613 57 46 0.0 0.0 0.00 0.00 0.00 84 1022.0
20210923123113 57 46 0.0 0.0 0.00 0.00 0.00 84 1021.6
20210923122611 57 46 0.0 0.0 0.00 0.00 0.00 85 1021.6
20210923122109 57 46 0.0 0.0 0.00 0.00 0.00 85 1021.6
20210923121606 57 46 0.0 0.0 0.00 0.00 0.00 85 1021.6
20210923121101 57 46 0.0 0.0 0.00 0.00 0.00 85 1021.6
20210923120559 57 46 0.0 0.0 0.00 0.00 0.00 84 1021.3
20210923120056 57 46 0.0 0.0 0.00 0.00 0.00 84 1021.6
20210923115555 56 46 0.0 0.0 0.00 0.00 0.00 85 1021.6
20210923115054 57 46 0.0 0.0 0.00 0.00 0.00 85 1021.6
20210923114553 57 46 0.0 0.0 0.00 0.00 0.00 83 1021.3
20210923114051 57 46 0.0 0.0 0.00 0.00 0.00 83 1021.3
20210923113549 57 46 0.0 0.0 0.00 0.00 0.00 83 1021.3
20210923113049 57 46 0.0 0.0 0.00 0.00 0.00 83 1021.6
20210923112548 57 46 0.0 0.0 0.00 0.00 0.00 84 1021.3
20210923112048 57 46 0.0 0.0 0.00 0.00 0.00 84 1021.3
20210923111546 58 46 0.0 0.0 0.00 0.00 0.00 84 1021.3
20210923111044 58 46 0.0 0.0 0.00 0.00 0.00 84 1021.3
20210923110542 58 46 0.0 0.0 0.00 0.00 0.00 82 1021.3
20210923110042 58 46 0.0 0.0 0.00 0.00 0.00 84 1021.3
20210923105538 58 46 0.0 0.0 0.00 0.00 0.00 83 1021.3
20210923105037 58 46 0.0 0.0 0.00 0.00 0.00 83 1021.3
20210923104535 58 46 0.0 0.0 0.00 0.00 0.00 82 1021.3
20210923104034 58 46 0.0 0.0 0.00 0.00 0.00 82 1021.0
20210923103533 58 46 0.0 0.0 0.00 0.00 0.00 82 1021.0
20210923103030 58 46 0.0 0.0 0.00 0.00 0.00 81 1021.0
20210923102522 58 46 0.0 0.0 0.00 0.00 0.00 82 1021.3
20210923102020 58 46 0.0 0.0 0.00 0.00 0.00 82 1021.3
20210923101518 58 46 0.0 0.0 0.00 0.00 0.00 81 1021.3
20210923101012 58 46 0.0 0.0 0.00 0.00 0.00 81 1021.3
20210923100510 58 46 0.0 0.0 0.00 0.00 0.00 82 1021.3
20210923100009 59 46 0.0 0.0 0.00 0.00 0.00 81 1021.3
20210923095508 58 46 0.0 0.0 0.00 0.00 0.00 81 1021.3
20210923095008 59 46 0.0 0.0 0.00 0.00 0.00 80 1021.3
20210923094506 59 46 0.0 0.0 0.00 0.00 0.00 81 1021.3
20210923094005 59 46 0.0 0.0 0.00 0.00 0.00 79 1021.3
20210923093503 59 46 0.0 0.0 0.00 0.00 0.00 80 1021.3
20210923093001 59 46 0.0 0.0 0.00 0.00 0.00 79 1021.3
20210923092500 59 46 0.0 0.0 0.00 0.00 0.00 78 1021.3
20210923091959 59 46 0.0 0.0 0.00 0.00 0.00 79 1021.6
20210923091457 60 46 0.0 0.0 0.00 0.00 0.00 78 1021.3
20210923090956 60 46 0.0 0.0 0.00 0.00 0.00 76 1021.3
20210923090455 60 46 0.0 0.0 0.00 0.00 0.00 76 1021.6
20210923085954 60 46 0.0 0.0 0.00 0.00 0.00 76 1021.3
20210923085453 60 46 0.0 0.0 0.00 0.00 0.00 75 1021.6
20210923084943 60 46 0.0 0.0 0.00 0.00 0.00 76 1021.3
20210923084441 60 46 0.0 0.0 0.00 0.00 0.00 78 1021.6
20210923083940 60 46 0.0 0.0 0.00 0.00 0.00 78 1021.3
20210923083439 60 46 0.0 0.0 0.00 0.00 0.00 78 1021.6
20210923082938 60 46 0.0 0.0 0.00 0.00 0.00 78 1021.6
20210923082436 60 46 0.0 0.0 0.00 0.00 0.00 79 1021.6
20210923081936 60 46 0.0 0.0 0.00 0.00 0.00 79 1021.6
20210923081435 60 46 0.0 0.0 0.00 0.00 0.00 78 1021.6
20210923080935 60 46 0.0 0.0 0.00 0.00 0.00 78 1021.6
20210923080433 60 46 0.0 0.0 0.00 0.00 0.00 78 1021.3
20210923075932 61 46 0.0 0.0 0.00 0.00 0.00 77 1021.6
20210923075431 61 42 0.0 0.0 0.00 0.00 0.00 77 1021.6
20210923074929 61 42 0.0 0.0 0.00 0.00 0.00 76 1022.0
20210923074428 61 42 0.0 0.0 0.00 0.00 0.00 77 1021.6
20210923073927 61 42 0.0 0.0 0.00 0.00 0.00 76 1021.6
20210923073425 61 42 0.0 0.0 0.00 0.00 0.00 76 1021.6
20210923072925 62 42 0.0 0.0 0.00 0.00 0.00 77 1022.0
20210923072423 62 42 0.0 0.0 0.00 0.00 0.00 76 1021.6
20210923071919 62 42 0.0 0.0 0.00 0.00 0.00 76 1021.6
20210923071418 62 42 0.0 0.0 0.00 0.00 0.00 76 1021.6
20210923070916 62 42 0.0 0.0 0.00 0.00 0.00 76 1021.6
20210923070416 62 42 0.0 0.0 0.00 0.00 0.00 77 1021.6
20210923065915 62 42 0.0 0.0 0.00 0.00 0.00 76 1022.0
20210923065413 62 42 0.0 0.0 0.00 0.00 0.00 76 1022.0
20210923064912 62 42 0.0 0.0 0.00 0.00 0.00 76 1021.6
20210923064410 62 42 0.0 0.0 0.00 0.00 0.00 76 1021.6
20210923063909 62 42 0.0 0.0 0.00 0.00 0.00 75 1022.0
20210923063408 62 42 0.0 0.0 0.00 0.00 0.00 75 1022.0
20210923062906 62 42 0.0 0.0 0.00 0.00 0.00 74 1021.6
20210923062406 62 42 0.0 0.0 0.00 0.00 0.00 74 1022.0
20210923061904 63 42 0.0 0.0 0.00 0.00 0.00 74 1021.6
20210923061403 63 39 0.0 0.0 0.00 0.00 0.00 74 1022.0
20210923060901 63 39 0.0 0.0 0.00 0.00 0.00 74 1022.0
20210923060359 63 39 0.0 0.0 0.00 0.00 0.00 74 1022.0
20210923055856 63 39 0.0 0.0 0.00 0.00 0.00 73 1021.6
20210923055354 63 39 0.0 0.0 0.00 0.00 0.00 74 1022.0
20210923054854 63 39 0.0 0.0 0.00 0.00 0.00 73 1022.0
20210923054352 63 39 0.0 0.0 0.00 0.00 0.00 73 1022.0
20210923053848 63 39 0.0 0.0 0.00 0.00 0.00 73 1022.0
20210923053347 63 39 0.0 0.0 0.00 0.00 0.00 72 1022.0
20210923052846 63 39 0.0 0.0 0.00 0.00 0.00 70 1022.0
20210923052345 64 39 0.0 0.0 0.00 0.00 0.00 71 1022.0
20210923051843 64 39 0.0 0.0 0.00 0.00 0.00 69 1022.3
20210923051342 64 39 0.0 0.0 0.00 0.00 0.00 68 1022.0
20210923050841 64 39 0.0 0.0 0.00 0.00 0.00 67 1022.0
20210923050339 64 39 0.0 0.0 0.00 0.00 0.00 67 1022.0
20210923045838 65 39 0.0 0.0 0.00 0.00 0.00 64 1022.0
20210923045336 65 39 0.0 0.0 0.00 0.00 0.00 63 1022.0
20210923044835 64 39 0.0 0.0 0.00 0.00 0.00 63 1022.0
20210923044334 64 39 0.0 0.0 0.00 0.00 0.00 64 1022.0
20210923043832 64 39 0.0 0.0 0.00 0.00 0.00 65 1022.0
20210923043330 65 39 0.0 0.0 0.00 0.00 0.00 64 1022.0
20210923042828 65 39 0.0 0.0 0.00 0.00 0.00 62 1022.0
20210923042327 65 39 0.0 0.0 0.00 0.00 0.00 64 1022.0
20210923041825 65 39 0.0 0.0 0.00 0.00 0.00 61 1022.0
20210923041323 65 39 0.0 0.0 0.00 0.00 0.00 59 1022.0
20210923040822 65 39 0.0 0.0 0.00 0.00 0.00 61 1022.0
20210923040321 66 39 0.0 0.0 0.00 0.00 0.00 62 1022.0
20210923035817 66 42 0.0 0.0 0.00 0.00 0.00 63 1022.0
20210923035315 66 39 0.0 0.0 0.00 0.00 0.00 62 1022.0
20210923034812 66 39 0.0 0.0 0.00 0.00 0.00 61 1022.0
20210923034312 67 39 0.0 0.0 0.00 0.00 0.00 59 1022.0
20210923033810 67 39 0.0 0.0 0.00 0.00 0.00 60 1021.6
20210923033308 68 39 0.0 0.0 0.00 0.00 0.00 60 1021.6
20210923032806 68 39 0.0 0.0 0.00 0.00 0.00 55 1022.0
20210923032305 68 39 0.0 0.0 0.00 0.00 0.00 55 1022.0
20210923031804 67 42 0.0 0.0 0.00 0.00 0.00 55 1021.6
20210923031303 67 42 0.0 0.0 0.00 0.00 0.00 60 1022.0
20210923030802 68 42 0.0 0.0 0.00 0.00 0.00 54 1022.0
20210923030300 67 42 0.0 0.0 0.00 0.00 0.00 57 1022.0
20210923025758 68 42 0.0 0.0 0.00 0.00 0.00 57 1021.6
20210923025257 69 42 0.0 0.0 0.00 0.00 0.00 55 1021.6
20210923024756 69 42 0.0 0.0 0.00 0.00 0.00 54 1022.0
20210923024252 70 42 0.0 0.0 0.00 0.00 0.00 53 1021.6
20210923023751 70 42 0.0 0.0 0.00 0.00 0.00 51 1021.6
20210923023249 70 42 0.0 0.0 0.00 0.00 0.00 50 1021.6
20210923022749 69 42 0.0 0.0 0.00 0.00 0.00 49 1021.6
20210923022244 69 42 0.0 0.0 0.00 0.00 0.00 50 1021.3
20210923021742 69 42 0.0 0.0 0.00 0.00 0.00 52 1021.3
20210923021240 70 42 0.0 0.0 0.00 0.00 0.00 50 1021.6
20210923020739 71 42 0.0 0.0 0.00 0.00 0.00 48 1021.3
20210923020238 71 42 0.0 0.0 0.00 0.00 0.00 47 1021.3
20210923015736 71 42 0.0 0.0 0.00 0.00 0.00 49 1021.6
20210923015234 71 42 0.0 0.0 0.00 0.00 0.00 43 1021.3
20210923014733 71 42 0.0 0.0 0.00 0.00 0.00 43 1021.3
20210923014232 71 42 0.0 0.0 0.00 0.00 0.00 46 1021.3
20210923013728 71 42 0.0 0.0 0.00 0.00 0.00 45 1021.0
20210923013227 71 42 0.0 0.0 0.00 0.00 0.00 44 1021.0
20210923012725 71 42 0.0 0.0 0.00 0.00 0.00 44 1021.0
20210923012224 71 42 0.0 0.0 0.00 0.00 0.00 44 1020.6
20210923011720 72 42 0.0 0.0 0.00 0.00 0.00 44 1020.6
20210923011220 72 42 0.0 0.0 0.00 0.00 0.00 43 1021.0
20210923010718 72 42 0.0 0.0 0.00 0.00 0.00 42 1020.6
20210923010218 73 42 0.0 0.0 0.00 0.00 0.00 41 1020.6